Location: Miles
(41.4492°N, 81.6087°W)
Time: 18:44:04
(UTC+00:00)

Transit 2A - Pass Details

Date: 20 September 2024
Orbit: 590 x 960 km, 66.7° (Epoch: 05 October)

Event Time Altitude Azimuth Distance (km) Brightness Sun altitude
Rises 08:43:15 0° 321° (NW) 3,606 9.4 -27.6°
Enters shadow 08:43:35 - 320° (NW) 3,490 9.3 -27.5°
Reaches altitude 10° 08:46:07 10° 312° (NW) 2,623 - -27.1°
Maximum altitude 08:51:24 31° 252° (WSW) 1,481 - -26.2°
Drops below altitude 10° 08:56:18 10° 192° (SSW) 2,419 - -25.4°
Sets 08:58:51 0° 182° (S) 3,285 - -25.0°
